Regional Weather Roundup
Issued by NWS Cleveland, OH

Home | Current Version | Previous Version | Graphics & Text | Print | Product List | Glossary On
Versions: 1 2 3 4 5 6 7 8 9 10 11 12 13 14 15 16 17 18 19 20 21 22 23 24 25 26 27 28 29 30 31 32 33 34 35 36 37 38 39 40 41 42 43 44 45 46 47 48 49 50
000
ASUS41 KCLE 172302
RWRCLE
OHIO REGIONAL WEATHER ROUNDUP
NATIONAL WEATHER SERVICE CLEVELAND, OH
600 PM EST WED DEC 17 2014

NOTE: "FAIR" INDICATES FEW OR NO CLOUDS BELOW 12,000 FEET WITH NO
SIGNIFICANT WEATHER AND/OR OBSTRUCTIONS TO VISIBILITY.

OHZ001>008-015>018-024>027-034-035-043-044-180000-
   NORTHWEST OHIO

CITY           SKY/WX    TMP DP  RH WIND       PRES   REMARKS
DEFIANCE       NOT AVBL
FINDLAY        CLOUDY    29  23  78 W16       30.16R WCI  17
TOLEDO EXPRESS CLOUDY    29  20  69 W15G24    30.15R WCI  18
TOLEDO EXEC    CLOUDY    30  20  66 W12       30.15R WCI  20
LIMA           CLOUDY    30  22  72 W15G24    30.18R WCI  19
$$

OHZ009>014-019>023-028>033-038-089-180000-
   NORTHEAST OHIO

CITY           SKY/WX    TMP DP  RH WIND       PRES   REMARKS
CLE-HOPKINS    FLURRIES  30  23  75 W16       30.13R WCI  19
CLE-LAKEFRONT  CLOUDY    32  23  69 W21G31    30.10R WCI  20
CUY CO. ARPT   CLOUDY    32  25  74 W14G23    30.09S WCI  22
LORAIN-ELYRIA  CLOUDY    29  23  78 NW13      30.12R WCI  19
ASHTABULA      MIX PCPN  31  25  78 W13       30.06S WCI  21
AKRON-CANTON   CLOUDY    31  23  72 W14       30.09R WCI  21
WOOSTER        CLOUDY    29  23  78 W14       30.12R WCI  18
MANSFIELD      CLOUDY    27  21  78 W14G21    30.12R WCI  16
YOUNGSTOWN     FLURRIES  30  22  72 W10       30.07R WCI  21
$$

OHZ042-051>053-060>062-070>072-077>081-180000-
  SOUTHWEST OHIO

CITY           SKY/WX    TMP DP  RH WIND       PRES   REMARKS
CINC-COVINGTON CLOUDY    30  21  69 W8        30.24R WCI  22
CINC-LUNKEN    CLOUDY    30  23  75 W14       30.27R WCI  19
HAMILTON       CLOUDY    30  23  75 W7        30.26R WCI  23
DAYTON         CLOUDY    26  21  81 W15       30.22R WCI  14
WRIGHT-PAT AFB CLOUDY    27  22  81 W9G20     30.22R WCI  18
DAYTON GENERAL CLOUDY    28  23  81 W10       30.21R WCI  19
WILMINGTON     CLOUDY    28  22  78 W17       30.21R WCI  16
$$

OHZ036-037-039>041-045>050-054>059-063>069-073>076-082>088-180000-
  CENTRAL AND SOUTHEAST OHIO

CITY           SKY/WX    TMP DP  RH WIND       PRES   REMARKS
COLUMBUS       CLOUDY    29  22  75 W16       30.18R WCI  17
OSU AIRPORT    CLOUDY    28  23  81 W16       30.18R WCI  16
BOLTON FIELD   CLOUDY    28  23  80 W13       30.20R WCI  18
RICKENBACK AFB NOT AVBL
NEWARK         CLOUDY    30  22  72 W13       30.17R WCI  20
MARION         CLOUDY    27  21  78 W15G22    30.17R WCI  15
LANCASTER      CLOUDY    30  24  78 W13       30.19R WCI  20
ZANESVILLE     CLOUDY    30  22  72 W10       30.15R WCI  21
NEW PHILLY     CLOUDY    32  23  69 W13       30.13R WCI  22
$$



USA.gov is the U.S. government's official web portal to all federal, state and local government web resources and services.